This is the latest recevied weather packets stored in our database for station/object K3PPP. If no packets are shown the sender has not sent any weather packets the latest 10 day(s).
| Time | Temp. | Humidity | Pressure | Rain* | Wind** | Luminosity | Snow |
|---|---|---|---|---|---|---|---|
| 1778203478 | 8.89° C | 53% | 1012.2 hPa | 0 mm | - | 0 W/m² | - |
| 1778203175 | 8.89° C | 54% | 1012.3 hPa | 0 mm | - | 0 W/m² | - |
| 1778202873 | 8.89° C | 52% | 1012.2 hPa | 0 mm | - | 0 W/m² | - |
| 1778202571 | 8.89° C | 53% | 1011.9 hPa | 0 mm | - | 0 W/m² | - |
| 1778202267 | 8.89° C | 53% | 1011.9 hPa | 0 mm | - | 0 W/m² | - |
| 1778201965 | 8.89° C | 51% | 1011.8 hPa | 0 mm | - | 0 W/m² | - |
| 1778201661 | 8.89° C | 52% | 1011.6 hPa | 0 mm | - | 0 W/m² | - |
| 1778201358 | 8.89° C | 53% | 1011.8 hPa | 0 mm | - | 0 W/m² | - |
| 1778201054 | 8.89° C | 52% | 1011.5 hPa | 0 mm | - | 0 W/m² | - |
| 1778200751 | 9.44° C | 51% | 1011.6 hPa | 0 mm | - | 0 W/m² | - |
| 1778200448 | 9.44° C | 53% | 1011.4 hPa | 0 mm | - | 0 W/m² | - |
| 1778200145 | 9.44° C | 51% | 1011.5 hPa | 0 mm | - | 1 W/m² | - |
| 1778199841 | 10° C | 50% | 1011.6 hPa | 0 mm | - | 1 W/m² | - |
| 1778199537 | 10° C | 50% | 1011.2 hPa | 0 mm | - | 2 W/m² | - |
| 1778199233 | 10° C | 50% | 1011.4 hPa | 0 mm | - | 4 W/m² | - |
| 1778198930 | 10° C | 49% | 1011.3 hPa | 0 mm | - | 6 W/m² | - |
| 1778198627 | 10° C | 49% | 1011.3 hPa | 0 mm | - | 9 W/m² | - |
| 1778198323 | 10° C | 49% | 1011.3 hPa | 0 mm | - | 13 W/m² | - |
| 1778198021 | 10° C | 48% | 1011.3 hPa | 0 mm | - | 14 W/m² | - |
| 1778197718 | 10° C | 47% | 1011.1 hPa | 0 mm | - | 17 W/m² | - |
| 1778197414 | 10.56° C | 48% | 1011.1 hPa | 0 mm | - | 18 W/m² | - |
| 1778197111 | 10.56° C | 47% | 1011 hPa | 0 mm | - | 22 W/m² | - |
| 1778196808 | 10.56° C | 47% | 1011 hPa | 0 mm | - | 23 W/m² | - |
| 1778196507 | 10.56° C | 49% | 1011.1 hPa | 0 mm | - | 27 W/m² | - |
| 1778196202 | 11.11° C | 48% | 1010.8 hPa | 0 mm | - | 36 W/m² | - |
* Rain latest hour (hover to see other rain measurements)
** Current wind speed in m/s (hover to see current wind gust speed)